Location: Newark
(54.9353°N, 24.1167°E)
Time: 08:32:24
(UTC+00:00)

Envisat - Pass Details

Date: 05 October 2020
Orbit: 764 x 766 km, 98.1° (Epoch: 23 October)

Event Time Altitude Azimuth Distance (km) Brightness Sun altitude
Rises 16:56:03 0° 214° (SSW) 3,225 6.6 -10.5°
Reaches altitude 10° 16:59:10 10° 234° (SW) 2,304 6.2 -11.0°
Maximum altitude 17:02:26 17° 274° (W) 1,867 6.3 -11.4°
Drops below altitude 10° 17:05:43 10° 315° (NW) 2,315 6.3 -11.9°
Sets 17:08:52 0° 335° (NNW) 3,246 6.7 -12.4°
